Regional Weather Roundup
Issued by NWS State College, PA

Home | Current Version | Previous Version | Text Only | Print | Product List | Glossary On
Versions: 1 2 3 4 5 6 7 8 9 10 11 12 13 14 15 16 17 18 19 20 21 22 23 24 25 26 27 28 29 30 31 32 33 34 35 36 37 38 39 40 41 42 43 44 45 46 47 48 49 50
000
ASUS41 KCTP 231610
RWRCTP

REGIONAL WEATHER ROUNDUP
NATIONAL WEATHER SERVICE STATE COLLEGE PA
1100 AM EST FRI FEB 23 2018

Note: "fair" indicates few or no clouds below 12,000 feet with no
significant weather and/or obstructions to visibility.

* = STATION THAT DOES NOT REPORT PRECIPITATION /E.G. RAIN...SNOW...ETC/
    THUNDER OR FOG.

PAZ002>004-007>009-013>016-020>023-029>032-231700-
WESTERN PENNSYLVANIA

CITY           SKY/WX    TMP DP  RH WIND       PRES   REMARKS
ERIE           CLOUDY    49  44  83 S21G29    30.12F
MEADVILLE      CLOUDY    43  43 100 VRB3      30.19F
FRANKLIN*      CLOUDY    43  42  97 VRB5      30.23F
NEW CASTLE     RAIN      47  47 100 SE9       30.20F FOG
BEAVER COUNTY  RAIN      45  45 100 SE9       30.25S
BUTLER*        HVY RAIN  46  45  96 SE9       30.24S FOG
PITTSBURGH INT RAIN      48  48 100 NE5       30.23F FOG
PITTSBURGH     LGT RAIN  50  46  86 SE7       30.22F
INDIANA*       CLOUDY    45  45 100 S14G24    30.31F
LATROBE        PTSUNNY   52  46  82 SE9       30.26F
WASHINGTON CO* RAIN      54  52  93 S9        30.26F
$$

PAZ004>006-010>012-017>019-024>028-033>037-041-042-045-046-049>053-231700-
CENTRAL PENNSYLVANIA

CITY           SKY/WX    TMP DP  RH WIND       PRES   REMARKS
BRADFORD       CLOUDY    36  36 100 SE14G21   30.26F FOG
DUBOIS         LGT RAIN  38  36  92 SE13      30.27F FOG
CLEARFIELD     LGT RAIN  38  38 100 SE5       30.36F FOG
JOHNSTOWN      FOG       38  36  92 S10       30.32F VSB 1/4
ALTOONA        CLOUDY    38  36  92 S12       30.42F
STATE COLLEGE  LGT RAIN  37  36  93 S12       30.42F
WILLIAMSPORT   CLOUDY    38  36  92 NE13      30.48F FOG
SELINSGROVE    CLOUDY    39  35  86 S12       30.51F
FT INDIANTOWN  LGT RAIN  38  38 100 SE3       30.53F FOG
CAPITAL CITY   CLOUDY    40  38  93 SE9       30.54F FOG
HARRISBURG     CLOUDY    40  37  89 S9        30.54F FOG
YORK           CLOUDY    40  39  97 SE8       30.52F
$$

PAZ038>040-043-044-047-048-054-055-060>062-067>071-231700-
EASTERN PENNSYLVANIA

CITY           SKY/WX    TMP DP  RH WIND       PRES   REMARKS
SCRANTON       CLOUDY    37  32  82 VRB5      30.49F
MOUNT POCONO   FOG       30  30 100 SE10      30.46F VSB<1/4
ALLENTOWN      CLOUDY    38  33  82 E8        30.56F
QUAKERTOWN*    CLOUDY    37  36  93 E9        30.55F
READING        CLOUDY    38  38 100 SE9       30.55F
LANCASTER      CLOUDY    39  37  92 SE8       30.54F FOG
COATESVILLE    CLOUDY    37  37 100 E8G15     30.54F FOG
POTTSTOWN      CLOUDY    37  37 100 E5        30.57F FOG
BLUE BELL      CLOUDY    36  36 100 E6        30.58F
DOYLESTOWN     CLOUDY    37  35  92 VRB6      30.56F
WILLOW GROVE   NOT AVBL
NORTH PHILA    LGT RAIN  41  37  86 E7        30.59F FOG
PHILADELPHIA   CLOUDY    40  38  93 E8        30.57F
$$



USA.gov is the U.S. government's official web portal to all federal, state and local government web resources and services.